Regional Weather Roundup
Issued by NWS

Home | Current Version | Previous Version | Graphics & Text | Print | Product List | Glossary Off
Versions: 1 2 3 4 5 6 7 8 9 10 11 12 13 14 15 16 17 18 19 20 21 22 23 24 25 26 27 28 29 30 31 32 33 34 35 36 37 38 39 40 41 42 43 44 45 46 47 48 49 50

000
ASUS43 KTOP 281059
RWRKS

WEATHER ROUNDUP FOR KANSAS
NATIONAL WEATHER SERVICE GOODLAND KS
500 AM CST TUE FEB 28 2017

NOTE:  "FAIR" INDICATES FEW OR NO CLOUDS BELOW 12,000 FEET WITH NO
SIGNIFICANT WEATHER AND/OR OBSTRUCTIONS TO VISIBILITY.

KSZ001>006-013>018-027>032-041>047-281200-
NORTHWEST KANSAS

CITY           SKY/WX    TMP DP  RH WIND       PRES   REMARKS
GOODLAND       CLOUDY    26  21  81 NW12      29.69F WCI  16
HAYS             N/A     40  22  48 NW9       29.65
HILL CITY      CLEAR     37  27  67 NW15G23   29.65R WCI  28
RUSSELL        CLOUDY    37  20  50 SW8       29.63R
$$

KSZ061>065-074>080-084>089-281200-
SOUTHWEST KANSAS

CITY           SKY/WX    TMP DP  RH WIND       PRES   REMARKS
DODGE CITY     CLOUDY    43  16  33 SW9       29.66S
ELKHART          N/A     43  19  38 SW8         N/A
GARDEN CITY    PTCLDY    36  14  40 MISG      29.67R
GREAT BEND     PTCLDY    38  23  55 SW5       29.66R
LIBERAL        CLOUDY    43  12  28 SW13      29.69S
$$

KSZ066>073-081>083-090>101-281200-
SOUTHEAST KANSAS

CITY           SKY/WX    TMP DP  RH WIND       PRES   REMARKS
CHANUTE        CLOUDY    62  58  86 S20G30    29.72F
COFFEYVILLE    CLOUDY    62  58  86 S14G26    29.75F
HUTCHINSON     PTCLDY    50  47  89 S7        29.66R
MEDICINE LODGE   N/A     47  36  65 S8        29.68R
NEWTON         MOCLDY    57  56  96 S16       29.67S FOG
PARSONS        CLOUDY    62  58  86 S13G22    29.75F
WICHITA INTL   CLOUDY    56  56 100 S8        29.68S FOG
WICHITA JABRA  CLOUDY    59  58  96 S17       29.68S
WINFIELD       PTCLDY    61  58  90 S15G24    29.71R
$$

KSZ007>012-019>026-033>040-048>060-102>105-281200-
NORTHEAST KANSAS

CITY           SKY/WX    TMP DP  RH WIND       PRES   REMARKS
CONCORDIA      CLOUDY    48  32  53 SW10      29.60F
EMPORIA        CLOUDY    61  58  90 S16       29.68F
LAWRENCE         N/A     64  59  83 MISG      29.67F
MANHATTAN      CLOUDY    56  53  90 SW14      29.64S
OLATHE IND     CLOUDY    62  57  83 S16       29.71R
OLATHE EXE     CLOUDY    61  58  90 SW13      29.70S
SALINA         CLOUDY    51  48  89 S10       29.65S
TOPEKA BILLARD PTCLDY    63  59  87 S13G25    29.65F
TOPEKA FORBES  PTCLDY    63  58  83 S17       29.66F
$$



USA.gov is the U.S. government's official web portal to all federal, state and local government web resources and services.